Location: Siemianowice Slaskie
(50.3000°N, 19.0330°E)
Time: 00:42:28
(UTC+01:00)

ISS - Visible Passes

Search period start: 16 January 2021 00:00
Search period end: 26 January 2021 00:00
Orbit: 418 x 419 km, 51.6° (Epoch: 16 January)

Date Brightness Start Highest point End Pass type
(mag) Time Alt. Az. Time Alt. Az. Time Alt. Az.
18 Jan -1.0 18:42:39 10° SSW 18:42:57 11° S 18:42:57 11° S visible
19 Jan -1.5 17:55:50 10° S 17:57:27 14° SE 17:57:27 14° SE visible
20 Jan -2.0 18:42:59 10° SW 18:44:49 26° SSW 18:44:49 26° SSW visible
21 Jan -2.6 17:55:33 10° SSW 17:58:30 29° SSE 17:59:10 26° SE visible
21 Jan -0.5 19:31:41 10° WSW 19:32:07 13° WSW 19:32:07 13° WSW visible
22 Jan -1.9 17:08:19 10° S 17:10:51 20° SE 17:13:23 10° E visible
22 Jan -2.8 18:43:54 10° WSW 18:46:24 46° SW 18:46:24 46° SW visible
23 Jan -3.5 17:56:11 10° SW 17:59:29 56° SSE 18:00:37 35° E visible
23 Jan -0.6 19:32:55 10° W 19:33:34 15° W 19:33:34 15° W visible
24 Jan -2.9 17:08:33 10° SW 17:11:44 40° SSE 17:14:47 11° E visible
24 Jan -3.0 18:45:03 10° W 18:47:44 53° W 18:47:44 53° W visible
25 Jan -3.8 17:57:11 10° WSW 18:00:33 89° NNW 18:01:52 35° ENE visible
25 Jan -0.6 19:34:06 10° W 19:34:49 15° WNW 19:34:49 15° WNW visible
